| time (UTC) | temp C | wind direction | speed KPH | gust KPH | rain 1hr cm | rain 24hr cm | rain mn cm | humidity % | barometer mb |
| 20260504041607 | 12 | 290 | 3.2 | 3.2 | 0.00 | 0.00 | 0.00 | 74 | 1021.1 |
| 20260504041104 | 12 | 298 | 1.6 | 3.2 | 0.00 | 0.00 | 0.00 | 76 | 1021.4 |
| 20260504040601 | 12 | 296 | 1.6 | 3.2 | 0.00 | 0.00 | 0.00 | 75 | 1021.1 |
| 20260504040058 | 12 | 286 | 3.2 | 3.2 | 0.00 | 0.00 | 0.00 | 74 | 1021.3 |
| 20260504035555 | 12 | 282 | 3.2 | 4.8 | 0.00 | 0.00 | 0.00 | 75 | 1021.0 |
| 20260504035051 | 13 | 275 | 1.6 | 3.2 | 0.00 | 0.00 | 0.00 | 74 | 1021.3 |
| 20260504034549 | 13 | 283 | 1.6 | 3.2 | 0.00 | 0.00 | 0.00 | 73 | 1021.1 |
| 20260504034045 | 13 | 302 | 0.0 | 3.2 | 0.00 | 0.00 | 0.00 | 70 | 1021.2 |
| 20260504033544 | 13 | 293 | 1.6 | 3.2 | 0.00 | 0.00 | 0.00 | 73 | 1021.1 |
| 20260504033041 | 13 | 222 | 1.6 | 3.2 | 0.00 | 0.00 | 0.00 | 73 | 1021.0 |
| 20260504032538 | 13 | 209 | 1.6 | 3.2 | 0.00 | 0.00 | 0.00 | 71 | 1021.1 |
| 20260504032034 | 13 | 265 | 1.6 | 4.8 | 0.00 | 0.00 | 0.00 | 73 | 1021.1 |
| 20260504031531 | 13 | 267 | 1.6 | 3.2 | 0.00 | 0.00 | 0.00 | 74 | 1021.0 |
| 20260504031027 | 12 | 289 | 1.6 | 3.2 | 0.00 | 0.00 | 0.00 | 75 | 1021.0 |
| 20260504030525 | 12 | 281 | 3.2 | 3.2 | 0.00 | 0.00 | 0.00 | 77 | 1021.0 |
| 20260504030021 | 12 | 294 | 3.2 | 3.2 | 0.00 | 0.00 | 0.00 | 76 | 1021.1 |
| 20260504025518 | 12 | 294 | 3.2 | 4.8 | 0.00 | 0.00 | 0.00 | 74 | 1020.7 |
| 20260504025015 | 12 | 294 | 3.2 | 3.2 | 0.00 | 0.00 | 0.00 | 74 | 1020.8 |
| 20260504024512 | 12 | 279 | 3.2 | 4.8 | 0.00 | 0.00 | 0.00 | 75 | 1020.7 |
| 20260504024009 | 12 | 294 | 3.2 | 4.8 | 0.00 | 0.00 | 0.00 | 73 | 1020.5 |
| 20260504023505 | 12 | 295 | 3.2 | 3.2 | 0.00 | 0.00 | 0.00 | 75 | 1020.6 |
| 20260504023001 | 12 | 281 | 3.2 | 4.8 | 0.00 | 0.00 | 0.00 | 73 | 1020.6 |
| 20260504022457 | 12 | 292 | 3.2 | 4.8 | 0.00 | 0.00 | 0.00 | 75 | 1020.7 |
| 20260504021954 | 12 | 281 | 3.2 | 4.8 | 0.00 | 0.00 | 0.00 | 74 | 1020.7 |
| 20260504021452 | 12 | 278 | 3.2 | 4.8 | 0.00 | 0.00 | 0.00 | 75 | 1020.5 |
| 20260504020948 | 12 | 266 | 3.2 | 3.2 | 0.00 | 0.00 | 0.00 | 74 | 1020.7 |
| 20260504020445 | 12 | 291 | 4.8 | 4.8 | 0.00 | 0.00 | 0.00 | 74 | 1020.5 |
| 20260504015942 | 13 | 293 | 3.2 | 3.2 | 0.00 | 0.00 | 0.00 | 74 | 1020.6 |
| 20260504015438 | 13 | 284 | 3.2 | 6.4 | 0.00 | 0.00 | 0.00 | 75 | 1020.7 |
| 20260504014934 | 13 | 293 | 4.8 | 4.8 | 0.00 | 0.00 | 0.00 | 73 | 1020.5 |
| 20260504014430 | 13 | 289 | 3.2 | 3.2 | 0.00 | 0.00 | 0.00 | 73 | 1020.6 |
| 20260504013927 | 13 | 286 | 3.2 | 4.8 | 0.00 | 0.00 | 0.00 | 72 | 1020.6 |
| 20260504013426 | 13 | 307 | 3.2 | 4.8 | 0.00 | 0.00 | 0.00 | 73 | 1020.6 |
| 20260504012921 | 13 | 292 | 3.2 | 4.8 | 0.00 | 0.00 | 0.00 | 74 | 1020.4 |
| 20260504012420 | 13 | 290 | 3.2 | 4.8 | 0.00 | 0.00 | 0.00 | 72 | 1020.3 |
| 20260504011917 | 13 | 288 | 3.2 | 4.8 | 0.00 | 0.00 | 0.00 | 72 | 1020.1 |
| 20260504011413 | 13 | 289 | 3.2 | 4.8 | 0.00 | 0.00 | 0.00 | 72 | 1020.4 |
| 20260504010909 | 13 | 286 | 3.2 | 4.8 | 0.00 | 0.00 | 0.00 | 71 | 1020.1 |
| 20260504010405 | 13 | 291 | 3.2 | 4.8 | 0.00 | 0.00 | 0.00 | 70 | 1020.2 |
| 20260504005902 | 14 | 290 | 3.2 | 4.8 | 0.00 | 0.00 | 0.00 | 72 | 1020.2 |
| 20260504005358 | 14 | 295 | 3.2 | 4.8 | 0.00 | 0.00 | 0.00 | 71 | 1020.1 |
| 20260504004856 | 15 | 282 | 3.2 | 3.2 | 0.00 | 0.00 | 0.00 | 72 | 1019.9 |
| 20260504004353 | 15 | 276 | 3.2 | 3.2 | 0.00 | 0.00 | 0.00 | 72 | 1020.0 |
| 20260504003850 | 15 | 277 | 3.2 | 4.8 | 0.00 | 0.00 | 0.00 | 70 | 1019.9 |
| 20260504003347 | 15 | 295 | 3.2 | 4.8 | 0.00 | 0.00 | 0.00 | 69 | 1019.9 |
| 20260504002843 | 15 | 280 | 3.2 | 3.2 | 0.00 | 0.00 | 0.00 | 69 | 1019.9 |
| 20260504002340 | 15 | 290 | 3.2 | 3.2 | 0.00 | 0.00 | 0.00 | 68 | 1020.1 |
| 20260504001838 | 16 | 286 | 1.6 | 3.2 | 0.00 | 0.00 | 0.00 | 67 | 1019.8 |
| 20260504001335 | 16 | 288 | 3.2 | 3.2 | 0.00 | 0.00 | 0.00 | 69 | 1020.0 |
| 20260504000832 | 16 | 285 | 3.2 | 3.2 | 0.00 | 0.00 | 0.00 | 64 | 1020.0 |
| 20260504000329 | 16 | 288 | 3.2 | 3.2 | 0.00 | 0.00 | 0.00 | 66 | 1020.0 |
| 20260503235826 | 17 | 289 | 1.6 | 3.2 | 0.00 | 0.00 | 0.00 | 64 | 1019.9 |
| 20260503235324 | 17 | 270 | 1.6 | 4.8 | 0.00 | 0.00 | 0.00 | 64 | 1020.1 |
| 20260503234821 | 17 | 279 | 3.2 | 3.2 | 0.00 | 0.00 | 0.00 | 57 | 1019.8 |
| 20260503234319 | 18 | 283 | 3.2 | 3.2 | 0.00 | 0.00 | 0.00 | 52 | 1020.0 |
| 20260503233816 | 18 | 181 | 1.6 | 3.2 | 0.00 | 0.00 | 0.00 | 51 | 1020.2 |
| 20260503233312 | 18 | 305 | 1.6 | 3.2 | 0.00 | 0.00 | 0.00 | 50 | 1020.0 |
| 20260503232809 | 19 | 212 | 1.6 | 3.2 | 0.00 | 0.00 | 0.00 | 47 | 1019.9 |
| 20260503232306 | 19 | 203 | 3.2 | 4.8 | 0.00 | 0.00 | 0.00 | 48 | 1020.1 |
| 20260503231804 | 20 | 177 | 0.0 | 4.8 | 0.00 | 0.00 | 0.00 | 48 | 1019.9 |
| 20260503231301 | 20 | 199 | 4.8 | 6.4 | 0.00 | 0.00 | 0.00 | 45 | 1020.1 |
| 20260503230802 | 21 | 172 | 3.2 | 4.8 | 0.00 | 0.00 | 0.00 | 45 | 1020.2 |
| 20260503230259 | 21 | 172 | 3.2 | 3.2 | 0.00 | 0.00 | 0.00 | 42 | 1020.3 |
| 20260503225757 | 21 | 218 | 3.2 | 9.7 | 0.00 | 0.00 | 0.00 | 41 | 1020.3 |
| 20260503225258 | 21 | 157 | 1.6 | 6.4 | 0.00 | 0.00 | 0.00 | 43 | 1020.2 |
| 20260503224755 | 21 | 244 | 1.6 | 4.8 | 0.00 | 0.00 | 0.00 | 43 | 1020.2 |
| 20260503224252 | 21 | 197 | 3.2 | 6.4 | 0.00 | 0.00 | 0.00 | 43 | 1020.2 |
| 20260503223749 | 21 | 203 | 3.2 | 3.2 | 0.00 | 0.00 | 0.00 | 44 | 1020.2 |
| 20260503223247 | 21 | 199 | 4.8 | 4.8 | 0.00 | 0.00 | 0.00 | 44 | 1020.2 |
| 20260503222743 | 21 | 199 | 4.8 | 4.8 | 0.00 | 0.00 | 0.00 | 44 | 1020.2 |
| 20260503222241 | 21 | 238 | 3.2 | 9.7 | 0.00 | 0.00 | 0.00 | 46 | 1020.2 |
| 20260503221739 | 21 | 192 | 9.7 | 12.9 | 0.00 | 0.00 | 0.00 | 48 | 1020.2 |
| 20260503221237 | 21 | 186 | 9.7 | 11.3 | 0.00 | 0.00 | 0.00 | 45 | 1020.5 |
| 20260503220733 | 21 | 187 | 8.0 | 9.7 | 0.00 | 0.00 | 0.00 | 44 | 1020.5 |
| 20260503220230 | 20 | 183 | 6.4 | 12.9 | 0.00 | 0.00 | 0.00 | 44 | 1020.5 |
| 20260503215727 | 20 | 203 | 4.8 | 11.3 | 0.00 | 0.00 | 0.00 | 44 | 1020.4 |
| 20260503215224 | 20 | 191 | 6.4 | 6.4 | 0.00 | 0.00 | 0.00 | 48 | 1020.3 |
| 20260503214722 | 20 | 182 | 9.7 | 11.3 | 0.00 | 0.00 | 0.00 | 47 | 1020.5 |
| 20260503214219 | 20 | 219 | 1.6 | 11.3 | 0.00 | 0.00 | 0.00 | 46 | 1020.6 |
| 20260503213717 | 20 | 174 | 6.4 | 6.4 | 0.00 | 0.00 | 0.00 | 50 | 1020.7 |
| 20260503213214 | 20 | 181 | 6.4 | 11.3 | 0.00 | 0.00 | 0.00 | 51 | 1020.7 |
| 20260503212710 | 20 | 198 | 8.0 | 11.3 | 0.00 | 0.00 | 0.00 | 45 | 1020.8 |
| 20260503212208 | 20 | 191 | 3.2 | 11.3 | 0.00 | 0.00 | 0.00 | 47 | 1020.8 |
| 20260503211705 | 20 | 198 | 8.0 | 12.9 | 0.00 | 0.00 | 0.00 | 51 | 1020.8 |
| 20260503211201 | 20 | 197 | 14.5 | 14.5 | 0.00 | 0.00 | 0.00 | 51 | 1020.9 |
| 20260503210657 | 20 | 197 | 9.7 | 12.9 | 0.00 | 0.00 | 0.00 | 48 | 1020.8 |
| 20260503210154 | 20 | 192 | 12.9 | 12.9 | 0.00 | 0.00 | 0.00 | 54 | 1020.8 |
| 20260503205650 | 20 | 177 | 9.7 | 12.9 | 0.00 | 0.00 | 0.00 | 49 | 1021.0 |
| 20260503205146 | 20 | 190 | 6.4 | 16.1 | 0.00 | 0.00 | 0.00 | 47 | 1021.1 |
| 20260503204643 | 20 | 188 | 9.7 | 12.9 | 0.00 | 0.00 | 0.00 | 53 | 1021.1 |
| 20260503204141 | 20 | 181 | 11.3 | 12.9 | 0.00 | 0.00 | 0.00 | 52 | 1021.2 |
| 20260503203637 | 20 | 180 | 12.9 | 14.5 | 0.00 | 0.00 | 0.00 | 53 | 1021.3 |
| 20260503203135 | 20 | 182 | 11.3 | 11.3 | 0.00 | 0.00 | 0.00 | 52 | 1021.6 |
| 20260503202632 | 20 | 186 | 9.7 | 12.9 | 0.00 | 0.00 | 0.00 | 43 | 1021.5 |
| 20260503202130 | 20 | 242 | 6.4 | 9.7 | 0.00 | 0.00 | 0.00 | 43 | 1021.5 |
| 20260503201628 | 19 | 198 | 11.3 | 12.9 | 0.00 | 0.00 | 0.00 | 45 | 1021.6 |
| 20260503201125 | 19 | 175 | 6.4 | 11.3 | 0.00 | 0.00 | 0.00 | 44 | 1021.7 |
| 20260503200621 | 20 | 193 | 9.7 | 11.3 | 0.00 | 0.00 | 0.00 | 45 | 1021.9 |
| 20260503200118 | 19 | 191 | 8.0 | 12.9 | 0.00 | 0.00 | 0.00 | 44 | 1021.7 |
| 20260503195615 | 19 | 191 | 11.3 | 12.9 | 0.00 | 0.00 | 0.00 | 48 | 1022.0 |
| 20260503195112 | 19 | 197 | 11.3 | 14.5 | 0.00 | 0.00 | 0.00 | 47 | 1022.0 |
| 20260503194609 | 19 | 185 | 11.3 | 17.7 | 0.00 | 0.00 | 0.00 | 45 | 1022.2 |
| 20260503194103 | 20 | 163 | 6.4 | 6.4 | 0.00 | 0.00 | 0.00 | 47 | 1022.2 |
| 20260503193600 | 19 | 183 | 4.8 | 6.4 | 0.00 | 0.00 | 0.00 | 43 | 1022.3 |
| 20260503193056 | 19 | 179 | 4.8 | 9.7 | 0.00 | 0.00 | 0.00 | 44 | 1022.5 |
| 20260503192552 | 19 | 160 | 6.4 | 11.3 | 0.00 | 0.00 | 0.00 | 47 | 1022.5 |
| 20260503192048 | 19 | 177 | 8.0 | 9.7 | 0.00 | 0.00 | 0.00 | 48 | 1022.6 |
| 20260503191545 | 18 | 166 | 3.2 | 9.7 | 0.00 | 0.00 | 0.00 | 50 | 1022.6 |
| 20260503191042 | 18 | 171 | 8.0 | 11.3 | 0.00 | 0.00 | 0.00 | 47 | 1022.7 |
| 20260503190539 | 18 | 163 | 3.2 | 6.4 | 0.00 | 0.00 | 0.00 | 52 | 1022.7 |
| 20260503190036 | 18 | 137 | 6.4 | 9.7 | 0.00 | 0.00 | 0.00 | 46 | 1023.0 |
| 20260503185533 | 18 | 171 | 6.4 | 6.4 | 0.00 | 0.00 | 0.00 | 49 | 1022.9 |
| 20260503185032 | 17 | 136 | 4.8 | 4.8 | 0.00 | 0.00 | 0.00 | 53 | 1023.2 |
| 20260503184528 | 17 | 164 | 4.8 | 6.4 | 0.00 | 0.00 | 0.00 | 51 | 1023.1 |
| 20260503184025 | 17 | 165 | 4.8 | 4.8 | 0.00 | 0.00 | 0.00 | 51 | 1023.1 |
| 20260503183522 | 17 | 162 | 3.2 | 4.8 | 0.00 | 0.00 | 0.00 | 52 | 1023.0 |
| 20260503183019 | 17 | 159 | 3.2 | 6.4 | 0.00 | 0.00 | 0.00 | 49 | 1023.3 |
| 20260503182518 | 17 | 159 | 3.2 | 4.8 | 0.00 | 0.00 | 0.00 | 50 | 1023.2 |
| 20260503182015 | 17 | 181 | 4.8 | 6.4 | 0.00 | 0.00 | 0.00 | 52 | 1023.6 |
| 20260503181512 | 17 | 189 | 4.8 | 4.8 | 0.00 | 0.00 | 0.00 | 54 | 1023.4 |
| 20260503181008 | 17 | 154 | 3.2 | 4.8 | 0.00 | 0.00 | 0.00 | 54 | 1023.5 |
| 20260503180506 | 16 | 167 | 3.2 | 4.8 | 0.00 | 0.00 | 0.00 | 58 | 1023.5 |
| 20260503180002 | 16 | 153 | 3.2 | 4.8 | 0.00 | 0.00 | 0.00 | 56 | 1023.5 |
| 20260503175500 | 16 | 128 | 1.6 | 4.8 | 0.00 | 0.00 | 0.00 | 56 | 1023.8 |
| 20260503174956 | 15 | 130 | 4.8 | 4.8 | 0.00 | 0.00 | 0.00 | 55 | 1023.8 |
| 20260503174454 | 15 | 97 | 3.2 | 4.8 | 0.00 | 0.00 | 0.00 | 55 | 1024.0 |
| 20260503173949 | 15 | 103 | 1.6 | 3.2 | 0.00 | 0.00 | 0.00 | 52 | 1024.0 |
| 20260503173445 | 16 | 154 | 3.2 | 4.8 | 0.00 | 0.00 | 0.00 | 53 | 1024.2 |
| 20260503172942 | 16 | 170 | 4.8 | 4.8 | 0.00 | 0.00 | 0.00 | 52 | 1024.2 |
| 20260503172440 | 16 | 128 | 0.0 | 1.6 | 0.00 | 0.00 | 0.00 | 53 | 1024.3 |
| 20260503171936 | 16 | 149 | 0.0 | 3.2 | 0.00 | 0.00 | 0.00 | 52 | 1024.5 |
| 20260503171433 | 16 | 181 | 4.8 | 4.8 | 0.00 | 0.00 | 0.00 | 52 | 1024.6 |
| 20260503170931 | 16 | 188 | 4.8 | 6.4 | 0.00 | 0.00 | 0.00 | 55 | 1024.6 |
| 20260503170426 | 15 | 199 | 4.8 | 6.4 | 0.00 | 0.00 | 0.00 | 54 | 1024.7 |
| 20260503150819 | 13 | 64 | 4.8 | 9.7 | 0.00 | 0.00 | 0.00 | 62 | 1025.7 |
| 20260503150315 | 12 | 101 | 4.8 | 9.7 | 0.00 | 0.00 | 0.00 | 61 | 1025.5 |
| 20260503140239 | 12 | 57 | 6.4 | 9.7 | 0.00 | 0.00 | 0.00 | 76 | 1025.3 |
| 20260503131209 | 11 | 72 | 3.2 | 3.2 | 0.00 | 0.00 | 0.00 | 75 | 1025.3 |
| 20260503130707 | 11 | 59 | 3.2 | 6.4 | 0.00 | 0.00 | 0.00 | 77 | 1025.1 |
| 20260503130204 | 11 | 50 | 4.8 | 6.4 | 0.00 | 0.00 | 0.00 | 75 | 1025.2 |
| 20260503120129 | 9 | 356 | 0.0 | 1.6 | 0.00 | 0.00 | 0.00 | 91 | 1024.9 |
| 20260503110556 | 6 | 302 | 1.6 | 3.2 | 0.00 | 0.00 | 0.00 | 95 | 1024.1 |
| 20260503090444 | 7 | 287 | 3.2 | 4.8 | 0.00 | 0.00 | 0.00 | 91 | 1023.1 |
| 20260503081410 | 8 | 171 | 0.0 | 0.0 | 0.00 | 0.00 | 0.00 | 91 | 1023.0 |
| 20260503080907 | 8 | 129 | 0.0 | 0.0 | 0.00 | 0.00 | 0.00 | 91 | 1022.9 |
| 20260503080404 | 8 | 90 | 0.0 | 0.0 | 0.00 | 0.00 | 0.00 | 91 | 1023.0 |
| 20260503072840 | 8 | 330 | 1.6 | 1.6 | 0.00 | 0.00 | 0.00 | 89 | 1022.5 |
| 20260503072337 | 8 | 342 | 1.6 | 1.6 | 0.00 | 0.00 | 0.00 | 89 | 1022.5 |
| 20260503071833 | 8 | 259 | 0.0 | 1.6 | 0.00 | 0.00 | 0.00 | 89 | 1022.2 |
| 20260503071331 | 8 | 284 | 1.6 | 3.2 | 0.00 | 0.00 | 0.00 | 89 | 1022.4 |
| 20260503070827 | 8 | 276 | 3.2 | 3.2 | 0.00 | 0.00 | 0.00 | 88 | 1022.4 |
| 20260503070325 | 8 | 301 | 3.2 | 3.2 | 0.00 | 0.00 | 0.00 | 88 | 1022.4 |
| 20260503060250 | 8 | 23 | 1.6 | 1.6 | 0.00 | 0.00 | 0.00 | 86 | 1022.1 |
| 20260503054737 | 9 | 291 | 1.6 | 3.2 | 0.00 | 0.00 | 0.00 | 86 | 1022.0 |
| 20260503054234 | 9 | 291 | 1.6 | 3.2 | 0.00 | 0.00 | 0.00 | 85 | 1022.1 |
| 20260503053732 | 9 | 332 | 0.0 | 1.6 | 0.00 | 0.00 | 0.00 | 84 | 1022.2 |
| 20260503053231 | 9 | 342 | 1.6 | 1.6 | 0.00 | 0.00 | 0.00 | 85 | 1022.2 |
| 20260503052726 | 9 | 295 | 3.2 | 6.4 | 0.00 | 0.00 | 0.00 | 84 | 1022.3 |
| 20260503052223 | 9 | 295 | 3.2 | 3.2 | 0.00 | 0.00 | 0.00 | 85 | 1022.1 |
| 20260503051718 | 9 | 297 | 3.2 | 3.2 | 0.00 | 0.00 | 0.00 | 85 | 1021.9 |
| 20260503051216 | 9 | 290 | 3.2 | 3.2 | 0.00 | 0.00 | 0.00 | 85 | 1022.2 |
| 20260503050712 | 9 | 292 | 3.2 | 4.8 | 0.00 | 0.00 | 0.00 | 84 | 1022.2 |
| 20260503050209 | 9 | 291 | 3.2 | 4.8 | 0.00 | 0.00 | 0.00 | 84 | 1022.0 |
| 20260503045707 | 9 | 295 | 3.2 | 4.8 | 0.00 | 0.00 | 0.00 | 83 | 1021.9 |
| 20260503045204 | 10 | 283 | 3.2 | 4.8 | 0.00 | 0.00 | 0.00 | 83 | 1022.0 |
| 20260503044700 | 9 | 285 | 3.2 | 4.8 | 0.00 | 0.00 | 0.00 | 84 | 1022.0 |
| 20260503044158 | 9 | 286 | 3.2 | 3.2 | 0.00 | 0.00 | 0.00 | 83 | 1021.9 |
| 20260503043654 | 9 | 303 | 3.2 | 3.2 | 0.00 | 0.00 | 0.00 | 82 | 1021.9 |
| 20260503043152 | 9 | 301 | 3.2 | 4.8 | 0.00 | 0.00 | 0.00 | 81 | 1021.7 |
| 20260503042647 | 10 | 289 | 3.2 | 4.8 | 0.00 | 0.00 | 0.00 | 81 | 1021.8 |
| 20260503042144 | 10 | 313 | 3.2 | 3.2 | 0.00 | 0.00 | 0.00 | 80 | 1021.8 |